Location: Newark
(48.7667°N, 7.9833°E)
Time: 03:08:24
(UTC+00:00)

PCSat - Visible Passes

Search period start: 20 September 2019 00:00
Search period end: 30 September 2019 00:00
Orbit: 784 x 795 km, 67.1° (Epoch: 19 September)

Date Brightness Start Highest point End Pass type
(mag) Time Alt. Az. Time Alt. Az. Time Alt. Az.
20 Sep 10.9 18:23:44 10° NW 18:28:49 41° WSW 18:33:50 10° S visible
21 Sep 10.4 17:52:38 10° NW 17:57:56 54° WSW 18:03:11 10° SSE visible
22 Sep 12.5 19:07:26 10° W 19:09:25 12° WSW 19:11:23 10° WSW visible
23 Sep 12.3 18:35:22 10° WNW 18:38:42 17° WSW 18:42:01 10° SW visible
24 Sep 12.2 18:03:49 10° WNW 18:07:56 22° WSW 18:12:02 10° SSW visible
28 Sep 13.0 17:45:13 10° W 17:46:54 11° WSW 17:48:34 10° WSW visible
